Time,TemperatureF,DewpointF,PressureIn,WindDirection,WindDirectionDegrees,WindSpeedMPH,WindSpeedGustMPH,Humidity,HourlyPrecipIn,Conditions,Clouds,dailyrainin,SoftwareType,DateUTC
2013-02-05 00:01:00,46.0,44.0,30.11,NW,309,3.0,5.0,92,-99.99,,,-99.99,,2013-02-05 08:01:00,
2013-02-05 00:11:00,46.0,44.0,30.11,NW,309,3.0,5.0,92,-99.99,,,-99.99,,2013-02-05 08:11:00,
2013-02-05 00:21:00,46.0,44.0,30.11,WNW,284,4.0,5.0,92,-99.99,,,-99.99,,2013-02-05 08:21:00,
2013-02-05 00:31:00,46.0,44.0,30.11,WNW,299,2.0,4.0,91,-99.99,,,-99.99,,2013-02-05 08:31:00,
2013-02-05 00:41:00,46.0,44.0,30.11,WNW,299,2.0,4.0,91,-99.99,,,-99.99,,2013-02-05 08:41:00,
2013-02-05 00:52:00,46.0,44.0,30.11,WNW,303,4.0,4.0,91,-99.99,,,-99.99,,2013-02-05 08:52:00,
2013-02-05 01:02:00,46.0,43.0,30.11,WNW,288,3.0,9.0,90,-99.99,,,-99.99,,2013-02-05 09:02:00,
2013-02-05 01:11:00,46.0,43.0,30.11,WNW,288,3.0,9.0,90,-99.99,,,-99.99,,2013-02-05 09:11:00,
2013-02-05 01:21:00,46.0,44.0,30.10,NNW,338,2.0,6.0,91,-99.99,,,-99.99,,2013-02-05 09:21:00,
2013-02-05 01:31:00,47.0,45.0,30.10,WSW,249,2.0,6.0,91,-99.99,,,-99.99,,2013-02-05 09:31:00,
2013-02-05 01:41:00,47.0,45.0,30.10,WSW,249,2.0,6.0,91,-99.99,,,-99.99,,2013-02-05 09:41:00,
2013-02-05 01:51:00,47.0,44.0,30.11,NW,310,7.0,8.0,90,-99.99,,,-99.99,,2013-02-05 09:51:00,
2013-02-05 02:01:00,47.0,44.0,30.11,NNW,343,3.0,6.0,89,-99.99,,,-99.99,,2013-02-05 10:01:00,
2013-02-05 02:11:00,47.0,44.0,30.11,NNW,343,3.0,6.0,89,-99.99,,,-99.99,,2013-02-05 10:11:00,
2013-02-05 02:21:00,47.0,44.0,30.10,WNW,301,5.0,6.0,88,-99.99,,,-99.99,,2013-02-05 10:21:00,
2013-02-05 02:31:00,47.0,44.0,30.10,West,261,5.0,8.0,89,-99.99,,,-99.99,,2013-02-05 10:31:00,
2013-02-05 02:42:00,47.0,44.0,30.10,West,261,5.0,8.0,89,-99.99,,,-99.99,,2013-02-05 10:42:00,
2013-02-05 02:52:00,47.0,44.0,30.10,NW,304,4.0,7.0,90,-99.99,,,-99.99,,2013-02-05 10:52:00,
2013-02-05 03:01:00,47.0,44.0,30.10,NW,316,2.0,5.0,90,-99.99,,,-99.99,,2013-02-05 11:01:00,
2013-02-05 03:11:00,47.0,44.0,30.10,NW,316,2.0,5.0,90,-99.99,,,-99.99,,2013-02-05 11:11:00,
2013-02-05 03:21:00,47.0,44.0,30.10,West,272,2.0,4.0,89,-99.99,,,-99.99,,2013-02-05 11:21:00,
2013-02-05 03:32:00,47.0,43.0,30.10,NW,313,2.0,3.0,86,-99.99,,,-99.99,,2013-02-05 11:32:00,
2013-02-05 03:41:00,47.0,43.0,30.10,NW,313,2.0,3.0,86,-99.99,,,-99.99,,2013-02-05 11:41:00,
2013-02-05 03:52:00,47.0,43.0,30.09,NNW,337,2.0,3.0,86,-99.99,,,-99.99,,2013-02-05 11:52:00,
2013-02-05 04:01:00,47.0,43.0,30.09,NW,305,0.0,3.0,86,-99.99,,,-99.99,,2013-02-05 12:01:00,
2013-02-05 04:12:00,47.0,43.0,30.09,NW,305,0.0,3.0,86,-99.99,,,-99.99,,2013-02-05 12:12:00,
2013-02-05 04:21:00,47.0,43.0,30.09,West,276,2.0,5.0,87,-99.99,,,-99.99,,2013-02-05 12:21:00,
2013-02-05 04:31:00,47.0,43.0,30.09,WSW,252,1.0,4.0,87,-99.99,,,-99.99,,2013-02-05 12:31:00,
2013-02-05 04:41:00,47.0,43.0,30.09,WSW,252,1.0,4.0,87,-99.99,,,-99.99,,2013-02-05 12:41:00,
2013-02-05 04:52:00,47.0,43.0,30.09,WNW,286,0.0,2.0,87,-99.99,,,-99.99,,2013-02-05 12:52:00,
2013-02-05 05:01:00,47.0,43.0,30.09,WNW,282,1.0,6.0,86,-99.99,,,-99.99,,2013-02-05 13:01:00,
2013-02-05 05:11:00,47.0,43.0,30.09,WNW,282,1.0,6.0,86,-99.99,,,-99.99,,2013-02-05 13:11:00,
2013-02-05 05:21:00,47.0,43.0,30.09,West,276,3.0,5.0,86,-99.99,,,-99.99,,2013-02-05 13:21:00,
2013-02-05 05:31:00,47.0,43.0,30.08,NW,304,2.0,4.0,86,-99.99,,,-99.99,,2013-02-05 13:31:00,
2013-02-05 05:41:00,47.0,43.0,30.08,NW,304,2.0,4.0,86,-99.99,,,-99.99,,2013-02-05 13:41:00,
2013-02-05 05:51:00,47.0,43.0,30.08,WNW,299,3.0,7.0,85,-99.99,,,-99.99,,2013-02-05 13:51:00,
2013-02-05 06:01:00,47.0,43.0,30.08,West,261,6.0,7.0,85,-99.99,,,-99.99,,2013-02-05 14:01:00,
2013-02-05 06:12:00,47.0,43.0,30.08,West,261,6.0,7.0,85,-99.99,,,-99.99,,2013-02-05 14:12:00,
2013-02-05 06:21:00,47.0,43.0,30.08,West,272,4.0,7.0,85,-99.99,,,-99.99,,2013-02-05 14:21:00,
2013-02-05 06:31:00,47.0,43.0,30.09,West,274,4.0,5.0,85,-99.99,,,-99.99,,2013-02-05 14:31:00,
2013-02-05 06:41:00,47.0,43.0,30.09,West,274,4.0,5.0,85,-99.99,,,-99.99,,2013-02-05 14:41:00,
2013-02-05 06:52:00,47.0,42.0,30.09,West,270,4.0,6.0,84,-99.99,,,-99.99,,2013-02-05 14:52:00,
2013-02-05 07:01:00,47.0,42.0,30.09,WNW,301,3.0,7.0,84,-99.99,,,-99.99,,2013-02-05 15:01:00,
2013-02-05 07:11:00,47.0,42.0,30.09,WNW,301,3.0,7.0,84,-99.99,,,-99.99,,2013-02-05 15:11:00,
2013-02-05 07:21:00,47.0,42.0,30.09,NW,319,3.0,7.0,83,-99.99,,,-99.99,,2013-02-05 15:21:00,
2013-02-05 07:32:00,47.0,42.0,30.09,West,275,1.0,7.0,82,-99.99,,,-99.99,,2013-02-05 15:32:00,
2013-02-05 07:41:00,47.0,42.0,30.09,West,275,1.0,7.0,82,-99.99,,,-99.99,,2013-02-05 15:41:00,
2013-02-05 07:52:00,47.0,42.0,30.10,WNW,303,1.0,7.0,82,-99.99,,,-99.99,,2013-02-05 15:52:00,
2013-02-05 08:01:00,48.0,43.0,30.09,WNW,296,3.0,5.0,82,-99.99,,,-99.99,,2013-02-05 16:01:00,
2013-02-05 08:11:00,48.0,43.0,30.09,WNW,296,3.0,5.0,82,-99.99,,,-99.99,,2013-02-05 16:11:00,
2013-02-05 08:22:00,48.0,43.0,30.09,WNW,296,3.0,5.0,82,-99.99,,,-99.99,,2013-02-05 16:22:00,
2013-02-05 08:32:00,48.0,43.0,30.10,WNW,303,2.0,5.0,83,-99.99,,,-99.99,,2013-02-05 16:32:00,
2013-02-05 08:41:00,48.0,43.0,30.10,WNW,303,2.0,5.0,83,-99.99,,,-99.99,,2013-02-05 16:41:00,
2013-02-05 08:52:00,48.0,43.0,30.11,West,259,4.0,6.0,83,-99.99,,,-99.99,,2013-02-05 16:52:00,
2013-02-05 09:01:00,49.0,44.0,30.11,WSW,255,6.0,9.0,84,-99.99,,,-99.99,,2013-02-05 17:01:00,
2013-02-05 09:11:00,49.0,44.0,30.11,WSW,255,6.0,9.0,84,-99.99,,,-99.99,,2013-02-05 17:11:00,
2013-02-05 09:21:00,49.0,45.0,30.11,NW,305,4.0,8.0,85,-99.99,,,-99.99,,2013-02-05 17:21:00,
2013-02-05 09:32:00,50.0,45.0,30.11,WNW,299,6.0,13.0,84,-99.99,,,-99.99,,2013-02-05 17:32:00,
2013-02-05 09:41:00,50.0,45.0,30.11,WNW,299,6.0,13.0,84,-99.99,,,-99.99,,2013-02-05 17:41:00,
2013-02-05 09:52:00,50.0,45.0,30.11,WNW,297,5.0,7.0,84,-99.99,,,-99.99,,2013-02-05 17:52:00,
2013-02-05 10:01:00,50.0,45.0,30.11,West,275,5.0,14.0,82,-99.99,,,-99.99,,2013-02-05 18:01:00,
2013-02-05 10:11:00,50.0,45.0,30.11,West,275,5.0,14.0,82,-99.99,,,-99.99,,2013-02-05 18:11:00,
2013-02-05 10:21:00,50.0,45.0,30.12,NW,313,2.0,10.0,82,-99.99,,,-99.99,,2013-02-05 18:21:00,
2013-02-05 10:32:00,50.0,45.0,30.12,North,350,4.0,9.0,82,-99.99,,,-99.99,,2013-02-05 18:32:00,
2013-02-05 10:42:00,50.0,45.0,30.12,North,350,4.0,9.0,82,-99.99,,,-99.99,,2013-02-05 18:42:00,
2013-02-05 10:51:00,51.0,46.0,30.13,WNW,300,4.0,7.0,82,-99.99,,,-99.99,,2013-02-05 18:51:00,
2013-02-05 11:02:00,51.0,45.0,30.13,NW,313,5.0,10.0,81,-99.99,,,-99.99,,2013-02-05 19:02:00,
2013-02-05 11:11:00,51.0,45.0,30.13,NW,313,5.0,10.0,81,-99.99,,,-99.99,,2013-02-05 19:11:00,
2013-02-05 11:21:00,51.0,45.0,30.12,WNW,294,4.0,8.0,81,-99.99,,,-99.99,,2013-02-05 19:21:00,
2013-02-05 11:31:00,52.0,46.0,30.12,NW,316,7.0,8.0,80,-99.99,,,-99.99,,2013-02-05 19:31:00,
2013-02-05 11:42:00,52.0,46.0,30.12,NW,316,7.0,8.0,80,-99.99,,,-99.99,,2013-02-05 19:42:00,
2013-02-05 11:51:00,51.0,45.0,30.12,NW,320,7.0,7.0,81,-99.99,,,-99.99,,2013-02-05 19:51:00,
2013-02-05 12:01:00,52.0,46.0,30.12,NW,316,9.0,9.0,81,-99.99,,,-99.99,,2013-02-05 20:01:00,
2013-02-05 12:11:00,52.0,46.0,30.12,NW,316,9.0,9.0,81,-99.99,,,-99.99,,2013-02-05 20:11:00,
2013-02-05 12:21:00,52.0,46.0,30.12,NNW,337,7.0,13.0,81,-99.99,,,-99.99,,2013-02-05 20:21:00,
2013-02-05 12:32:00,52.0,47.0,30.11,WNW,295,0.0,9.0,83,-99.99,,,-99.99,,2013-02-05 20:32:00,
2013-02-05 12:41:00,52.0,47.0,30.11,WNW,295,0.0,9.0,83,-99.99,,,-99.99,,2013-02-05 20:41:00,
2013-02-05 12:52:00,52.0,47.0,30.11,WNW,285,5.0,14.0,83,-99.99,,,-99.99,,2013-02-05 20:52:00,
2013-02-05 13:01:00,52.0,47.0,30.10,WSW,243,3.0,10.0,83,-99.99,,,-99.99,,2013-02-05 21:01:00,
2013-02-05 13:11:00,52.0,47.0,30.10,WSW,243,3.0,10.0,83,-99.99,,,-99.99,,2013-02-05 21:11:00,
2013-02-05 13:21:00,52.0,47.0,30.10,West,262,7.0,9.0,82,-99.99,,,-99.99,,2013-02-05 21:21:00,
2013-02-05 13:31:00,52.0,46.0,30.09,WNW,287,7.0,11.0,80,-99.99,,,-99.99,,2013-02-05 21:31:00,
2013-02-05 13:41:00,52.0,46.0,30.09,WNW,287,7.0,11.0,80,-99.99,,,-99.99,,2013-02-05 21:41:00,
2013-02-05 13:51:00,52.0,46.0,30.09,WNW,287,7.0,11.0,80,-99.99,,,-99.99,,2013-02-05 21:51:00,
2013-02-05 14:01:00,52.0,46.0,30.09,WNW,298,6.0,17.0,80,-99.99,,,-99.99,,2013-02-05 22:01:00,
2013-02-05 14:11:00,52.0,46.0,30.09,WNW,298,6.0,17.0,80,-99.99,,,-99.99,,2013-02-05 22:11:00,
2013-02-05 14:21:00,53.0,47.0,30.08,NW,315,9.0,10.0,80,-99.99,,,-99.99,,2013-02-05 22:21:00,
2013-02-05 14:31:00,53.0,47.0,30.09,NNW,330,13.0,14.0,81,-99.99,,,-99.99,,2013-02-05 22:31:00,
2013-02-05 14:41:00,53.0,47.0,30.09,NNW,330,13.0,14.0,81,-99.99,,,-99.99,,2013-02-05 22:41:00,
2013-02-05 14:51:00,52.0,47.0,30.08,West,272,7.0,16.0,82,-99.99,,,-99.99,,2013-02-05 22:51:00,
2013-02-05 15:01:00,52.0,47.0,30.08,WNW,295,8.0,16.0,83,-99.99,,,-99.99,,2013-02-05 23:01:00,
2013-02-05 15:11:00,52.0,47.0,30.08,WNW,295,8.0,16.0,83,-99.99,,,-99.99,,2013-02-05 23:11:00,
2013-02-05 15:21:00,52.0,47.0,30.09,West,259,5.0,14.0,84,-99.99,,,-99.99,,2013-02-05 23:21:00,
2013-02-05 15:32:00,53.0,48.0,30.09,West,268,7.0,13.0,84,-99.99,,,-99.99,,2013-02-05 23:32:00,
2013-02-05 15:41:00,53.0,48.0,30.09,West,268,7.0,13.0,84,-99.99,,,-99.99,,2013-02-05 23:41:00,
2013-02-05 15:52:00,53.0,48.0,30.09,West,274,7.0,11.0,83,-99.99,,,-99.99,,2013-02-05 23:52:00,
2013-02-05 16:01:00,53.0,48.0,30.09,NW,317,3.0,11.0,83,-99.99,,,-99.99,,2013-02-06 00:01:00,
2013-02-05 16:11:00,53.0,48.0,30.09,NW,317,3.0,11.0,83,-99.99,,,-99.99,,2013-02-06 00:11:00,
2013-02-05 16:21:00,52.0,48.0,30.09,WNW,291,8.0,16.0,85,-99.99,,,-99.99,,2013-02-06 00:21:00,
2013-02-05 16:32:00,52.0,48.0,30.09,NW,307,5.0,13.0,86,-99.99,,,-99.99,,2013-02-06 00:32:00,
2013-02-05 16:42:00,52.0,48.0,30.09,NW,307,5.0,13.0,86,-99.99,,,-99.99,,2013-02-06 00:42:00,
2013-02-05 16:51:00,52.0,48.0,30.09,WSW,258,3.0,11.0,86,-99.99,,,-99.99,,2013-02-06 00:51:00,
2013-02-05 17:01:00,52.0,48.0,30.09,West,280,3.0,9.0,87,-99.99,,,-99.99,,2013-02-06 01:01:00,
2013-02-05 17:11:00,52.0,48.0,30.09,West,280,3.0,9.0,87,-99.99,,,-99.99,,2013-02-06 01:11:00,
2013-02-05 17:21:00,52.0,48.0,30.09,NW,322,3.0,6.0,87,-99.99,,,-99.99,,2013-02-06 01:21:00,
2013-02-05 17:32:00,51.0,48.0,30.09,NW,321,2.0,6.0,88,-99.99,,,-99.99,,2013-02-06 01:32:00,
2013-02-05 17:41:00,51.0,48.0,30.09,NW,321,2.0,6.0,88,-99.99,,,-99.99,,2013-02-06 01:41:00,
2013-02-05 17:52:00,51.0,48.0,30.09,WNW,285,5.0,8.0,89,-99.99,,,-99.99,,2013-02-06 01:52:00,
2013-02-05 18:01:00,51.0,48.0,30.09,WSW,252,4.0,9.0,90,-99.99,,,-99.99,,2013-02-06 02:01:00,
2013-02-05 18:11:00,51.0,48.0,30.09,WSW,252,4.0,9.0,90,-99.99,,,-99.99,,2013-02-06 02:11:00,
2013-02-05 18:21:00,51.0,48.0,30.09,WSW,255,8.0,9.0,90,-99.99,,,-99.99,,2013-02-06 02:21:00,
2013-02-05 18:32:00,51.0,48.0,30.10,WSW,257,1.0,6.0,90,-99.99,,,-99.99,,2013-02-06 02:32:00,
2013-02-05 18:41:00,51.0,48.0,30.10,WSW,257,1.0,6.0,90,-99.99,,,-99.99,,2013-02-06 02:41:00,
2013-02-05 18:52:00,51.0,48.0,30.10,WSW,256,3.0,11.0,91,-99.99,,,-99.99,,2013-02-06 02:52:00,
2013-02-05 19:02:00,50.0,47.0,30.10,NW,326,9.0,9.0,91,-99.99,,,-99.99,,2013-02-06 03:02:00,
2013-02-05 19:11:00,50.0,47.0,30.10,NW,326,9.0,9.0,91,-99.99,,,-99.99,,2013-02-06 03:11:00,
2013-02-05 19:21:00,50.0,47.0,30.10,WSW,254,6.0,9.0,91,-99.99,,,-99.99,,2013-02-06 03:21:00,
2013-02-05 19:32:00,50.0,47.0,30.11,SSW,205,1.0,9.0,91,-99.99,,,-99.99,,2013-02-06 03:32:00,
2013-02-05 19:42:00,50.0,47.0,30.11,SSW,205,1.0,9.0,91,-99.99,,,-99.99,,2013-02-06 03:42:00,
2013-02-05 19:52:00,49.0,46.0,30.11,West,270,2.0,7.0,91,-99.99,,,-99.99,,2013-02-06 03:52:00,
2013-02-05 20:01:00,49.0,46.0,30.11,WNW,284,0.0,5.0,91,-99.99,,,-99.99,,2013-02-06 04:01:00,
2013-02-05 20:11:00,49.0,46.0,30.11,WNW,284,0.0,5.0,91,-99.99,,,-99.99,,2013-02-06 04:11:00,
2013-02-05 20:21:00,49.0,46.0,30.11,NW,309,4.0,7.0,90,-99.99,,,-99.99,,2013-02-06 04:21:00,
2013-02-05 20:31:00,49.0,46.0,30.12,NW,307,3.0,10.0,89,-99.99,,,-99.99,,2013-02-06 04:31:00,
2013-02-05 20:41:00,49.0,46.0,30.12,NW,307,3.0,10.0,89,-99.99,,,-99.99,,2013-02-06 04:41:00,
2013-02-05 20:51:00,49.0,46.0,30.13,WNW,299,10.0,12.0,88,-99.99,,,-99.99,,2013-02-06 04:51:00,
2013-02-05 21:01:00,49.0,46.0,30.13,WNW,285,2.0,8.0,88,-99.99,,,-99.99,,2013-02-06 05:01:00,
2013-02-05 21:11:00,49.0,46.0,30.13,WNW,285,2.0,8.0,88,-99.99,,,-99.99,,2013-02-06 05:11:00,
2013-02-05 21:22:00,49.0,46.0,30.13,WNW,285,2.0,8.0,88,-99.99,,,-99.99,,2013-02-06 05:22:00,
2013-02-05 21:31:00,49.0,45.0,30.13,WSW,246,1.0,7.0,86,-99.99,,,-99.99,,2013-02-06 05:31:00,
2013-02-05 21:41:00,49.0,45.0,30.13,WSW,246,1.0,7.0,86,-99.99,,,-99.99,,2013-02-06 05:41:00,
2013-02-05 21:53:00,49.0,45.0,30.14,West,275,2.0,4.0,85,-99.99,,,-99.99,,2013-02-06 05:53:00,
2013-02-05 22:01:00,49.0,45.0,30.14,West,275,2.0,4.0,85,-99.99,,,-99.99,,2013-02-06 06:01:00,
2013-02-05 22:11:00,49.0,45.0,30.14,West,275,2.0,4.0,85,-99.99,,,-99.99,,2013-02-06 06:11:00,
2013-02-05 22:21:00,49.0,45.0,30.14,WNW,286,0.0,5.0,85,-99.99,,,-99.99,,2013-02-06 06:21:00,
2013-02-05 22:31:00,49.0,45.0,30.14,West,261,4.0,6.0,85,-99.99,,,-99.99,,2013-02-06 06:31:00,
2013-02-05 22:41:00,49.0,45.0,30.14,West,261,4.0,6.0,85,-99.99,,,-99.99,,2013-02-06 06:41:00,
2013-02-05 22:51:00,49.0,44.0,30.15,West,264,1.0,5.0,84,-99.99,,,-99.99,,2013-02-06 06:51:00,
2013-02-05 23:01:00,49.0,44.0,30.15,West,262,0.0,1.0,84,-99.99,,,-99.99,,2013-02-06 07:01:00,
2013-02-05 23:11:00,49.0,44.0,30.15,West,262,0.0,1.0,84,-99.99,,,-99.99,,2013-02-06 07:11:00,
2013-02-05 23:21:00,48.0,43.0,30.14,SSW,202,0.0,2.0,84,-99.99,,,-99.99,,2013-02-06 07:21:00,
2013-02-05 23:32:00,48.0,43.0,30.16,SSW,201,0.0,0.0,83,-99.99,,,-99.99,,2013-02-06 07:32:00,
2013-02-05 23:41:00,48.0,43.0,30.16,SSW,201,0.0,0.0,83,-99.99,,,-99.99,,2013-02-06 07:41:00,
2013-02-05 23:51:00,48.0,43.0,30.16,SSE,153,0.0,4.0,83,-99.99,,,-99.99,,2013-02-06 07:51:00,